Location: Chuathbaluk
(61.5726°N, 159.2454°W)
Time: 16:13:56
(UTC+00:00)

ZACube-1 - Pass Details

Date: 21 January 2021
Orbit: 583 x 666 km, 97.6° (Epoch: 04 March)

Event Time Altitude Azimuth Distance (km) Brightness Sun altitude
Rises 03:32:11 0° 194° (SSW) 2,945 ? -8.8°
Reaches altitude 10° 03:34:34 10° 204° (SSW) 2,053 ? -9.1°
Maximum altitude 03:38:35 31° 267° (W) 1,152 ? -9.5°
Drops below altitude 10° 03:42:41 10° 331° (NNW) 2,098 ? -9.9°
Sets 03:45:09 0° 341° (NNW) 3,021 ? -10.2°
